Total_Precipitation_Accumulation
1.62 1.66 1.73 1.71 1.71 1.75 1.68 1.62 1.67 1.82 1.85 1.80 1.78 1.80 1.78 1.73 1.77 1.80 1.63 1.77 1.91 1.96 1.98 2.13 2.19 2.30 2.35 2.34 2.45 2.57 2.81 3.04 2.73 2.21 2.10 2.10 2.21 2.20 2.10 1.87 1.66 1.58 1.42
1.65 1.78 1.91 1.97 2.00 1.95 1.75 1.64 1.70 1.79 1.84 1.85 1.84 1.81 1.69 1.71 1.88 1.94 1.84 1.93 2.00 1.97 2.01 2.17 2.08 2.23 2.39 2.36 2.46 2.46 2.56 2.87 2.77 2.51 2.45 2.40 2.38 2.29 2.29 2.10 1.77 1.61 1.53
1.87 2.07 2.29 2.39 2.25 2.06 1.94 1.84 1.86 1.87 1.91 1.98 1.98 1.98 1.95 1.97 1.98 2.05 2.15 2.13 2.05 1.96 2.02 2.03 2.00 2.19 2.20 2.29 2.42 2.38 2.37 2.53 2.70 2.64 2.60 2.67 2.63 2.52 2.44 2.25 2.05 1.97 1.67
1.62 1.91 2.14 2.28 2.13 2.04 2.03 1.91 1.85 1.87 1.96 2.06 2.06 2.17 2.32 2.36 2.35 2.31 2.22 2.15 2.09 2.05 2.03 1.98 1.95 1.98 2.01 2.09 2.21 2.31 2.38 2.51 2.64 2.67 2.72 2.85 2.82 2.86 2.83 2.61 2.47 2.37 2.03
1.43 1.57 1.82 2.09 1.94 1.70 1.66 1.64 1.60 1.69 1.82 2.10 2.24 2.31 2.57 2.71 2.53 2.53 2.45 2.35 2.35 2.18 2.06 1.97 1.84 1.86 1.92 1.94 1.90 2.01 2.16 2.31 2.34 2.44 2.53 2.74 2.81 2.91 2.90 2.75 2.63 2.61 2.41
1.33 1.46 1.64 1.77 1.64 1.48 1.37 1.40 1.43 1.53 1.70 1.88 2.01 2.12 2.17 2.03 2.17 2.19 2.18 2.22 2.25 2.15 2.08 2.02 1.87 1.78 1.75 1.70 1.61 1.62 1.71 1.83 2.02 2.25 2.33 2.53 2.72 2.88 3.07 3.12 2.95 2.77 2.63
1.30 1.35 1.49 1.61 1.61 1.52 1.35 1.35 1.41 1.51 1.66 1.75 1.78 1.84 1.81 1.88 1.90 1.69 1.64 1.61 1.78 1.90 1.97 1.96 1.73 1.57 1.65 1.57 1.59 1.55 1.55 1.67 1.78 2.02 2.20 2.28 2.51 2.71 2.96 3.11 3.09 2.96 2.77
1.32 1.41 1.58 1.75 1.76 1.69 1.62 1.58 1.67 1.74 1.73 1.71 1.76 1.80 1.88 1.87 1.76 1.53 1.51 1.47 1.61 1.72 1.79 1.83 1.79 1.72 1.71 1.75 1.66 1.54 1.47 1.54 1.63 1.60 1.65 1.81 2.08 2.44 2.62 2.67 2.82 2.86 2.72
1.53 1.57 1.66 1.81 1.86 1.88 1.96 2.02 2.07 2.06 1.94 1.89 1.96 1.99 1.97 1.89 1.76 1.56 1.54 1.49 1.60 1.64 1.64 1.66 1.68 1.63 1.72 1.60 1.49 1.47 1.46 1.49 1.47 1.44 1.40 1.44 1.59 1.81 2.14 2.30 2.41 2.38 2.28
1.61 1.77 1.81 1.97 2.09 2.07 2.18 2.32 2.44 2.46 2.36 2.38 2.27 2.12 1.99 1.89 1.86 1.57 1.47 1.41 1.50 1.57 1.65 1.61 1.55 1.43 1.41 1.36 1.34 1.45 1.44 1.42 1.44 1.38 1.29 1.22 1.18 1.33 1.65 1.83 1.92 1.97 1.87
1.76 1.84 1.92 2.11 2.29 2.44 2.62 2.78 2.78 2.73 2.75 2.67 2.42 2.28 2.23 2.18 2.00 1.55 1.37 1.30 1.39 1.55 1.62 1.60 1.50 1.43 1.25 1.21 1.20 1.23 1.26 1.23 1.30 1.34 1.30 1.27 1.29 1.29 1.33 1.48 1.69 1.82 1.79
1.89 2.01 2.16 2.27 2.34 2.45 2.78 2.89 2.87 2.81 2.69 2.51 2.35 2.15 2.04 2.00 1.82 1.54 1.34 1.35 1.47 1.55 1.57 1.53 1.52 1.40 1.19 1.11 1.04 1.03 1.05 0.98 1.01 1.13 1.13 1.09 1.10 1.10 1.14 1.28 1.49 1.65 1.75
1.91 2.10 2.27 2.41 2.60 2.78 2.89 2.83 2.71 2.66 2.56 2.42 2.27 2.07 2.04 2.11 2.03 1.70 1.49 1.46 1.48 1.41 1.41 1.46 1.40 1.26 1.06 0.91 0.90 0.88 0.81 0.79 0.88 0.99 1.01 0.94 0.92 0.97 1.07 1.22 1.37 1.53 1.58
1.78 1.93 2.08 2.16 2.23 2.35 2.53 2.46 2.32 2.29 2.33 2.30 2.25 2.15 2.09 2.09 2.06 1.80 1.56 1.53 1.50 1.44 1.37 1.33 1.21 1.14 0.99 0.90 0.90 0.83 0.75 0.82 0.92 0.95 0.99 1.00 0.97 1.00 1.03 1.09 1.20 1.33 1.41
1.60 1.68 1.73 1.78 1.86 1.96 2.04 2.11 2.06 2.04 2.01 2.00 1.99 1.97 1.87 1.82 1.86 1.70 1.53 1.56 1.62 1.63 1.55 1.46 1.34 1.24 1.09 0.99 0.99 1.00 1.01 1.07 1.06 1.04 1.10 1.15 1.12 1.06 1.03 1.06 1.19 1.24 1.21
1.65 1.60 1.58 1.62 1.67 1.68 1.75 1.77 1.76 1.64 1.55 1.45 1.38 1.35 1.31 1.36 1.46 1.37 1.29 1.36 1.44 1.51 1.43 1.35 1.31 1.24 1.16 1.15 1.18 1.20 1.19 1.20 1.17 1.18 1.20 1.23 1.22 1.14 1.05 1.05 1.16 1.24 1.20
1.78 1.66 1.59 1.52 1.50 1.52 1.56 1.63 1.65 1.53 1.34 1.20 1.11 1.03 0.98 1.03 1.11 1.11 1.12 1.21 1.32 1.40 1.35 1.36 1.33 1.31 1.24 1.22 1.24 1.24 1.20 1.19 1.24 1.25 1.26 1.27 1.32 1.32 1.29 1.23 1.22 1.30 1.30
1.89 1.78 1.62 1.50 1.44 1.44 1.47 1.50 1.57 1.64 1.53 1.35 1.13 0.94 0.84 0.82 0.86 0.96 1.06 1.16 1.27 1.30 1.27 1.32 1.31 1.29 1.26 1.24 1.21 1.23 1.23 1.26 1.26 1.25 1.29 1.33 1.39 1.41 1.44 1.38 1.32 1.31 1.34
1.66 1.60 1.50 1.44 1.43 1.42 1.43 1.42 1.41 1.46 1.45 1.40 1.26 1.08 0.95 0.86 0.85 0.92 0.94 0.98 1.16 1.23 1.24 1.23 1.20 1.16 1.14 1.14 1.13 1.12 1.12 1.14 1.17 1.24 1.25 1.27 1.34 1.34 1.31 1.29 1.30 1.31 1.32
1.64 1.60 1.46 1.40 1.44 1.45 1.43 1.43 1.40 1.45 1.45 1.44 1.32 1.14 1.00 0.88 0.83 0.87 0.88 1.00 1.18 1.21 1.18 1.15 1.15 1.12 1.11 1.11 1.12 1.10 1.09 1.11 1.16 1.25 1.27 1.28 1.32 1.30 1.25 1.25 1.31 1.34 1.30
1.59 1.54 1.42 1.36 1.37 1.43 1.45 1.42 1.36 1.36 1.36 1.39 1.28 1.09 0.97 0.85 0.86 0.91 0.98 1.09 1.19 1.15 1.13 1.10 1.08 1.03 1.02 1.02 1.04 1.05 1.09 1.15 1.18 1.23 1.28 1.31 1.35 1.33 1.28 1.29 1.34 1.39 1.40
1.59 1.51 1.36 1.20 1.17 1.24 1.29 1.30 1.30 1.27 1.28 1.30 1.22 1.02 0.91 0.78 0.84 0.94 0.99 1.07 1.11 1.10 1.08 1.06 1.00 0.93 0.92 0.95 0.99 1.06 1.10 1.12 1.18 1.25 1.28 1.30 1.35 1.32 1.33 1.35 1.36 1.41 1.49
1.50 1.41 1.27 1.08 1.05 1.14 1.20 1.27 1.27 1.22 1.21 1.21 1.10 0.97 0.91 0.90 0.91 0.97 1.03 1.06 1.08 1.10 1.07 1.01 0.95 0.91 0.91 0.93 0.96 1.02 1.07 1.11 1.11 1.14 1.19 1.24 1.31 1.33 1.38 1.40 1.38 1.43 1.46
1.37 1.32 1.27 1.08 1.04 1.17 1.26 1.34 1.29 1.20 1.19 1.14 1.04 1.01 0.99 1.00 0.99 0.98 1.00 1.03 1.04 1.02 1.01 0.99 0.91 0.86 0.86 0.90 0.93 0.95 0.98 1.00 1.00 1.06 1.10 1.17 1.24 1.30 1.35 1.37 1.36 1.37 1.41
1.29 1.29 1.33 1.21 1.11 1.15 1.21 1.24 1.21 1.12 1.08 1.03 0.98 1.00 1.00 0.98 0.99 1.01 1.02 1.05 1.02 0.97 0.92 0.89 0.91 0.91 0.90 0.90 0.92 0.92 0.95 0.89 0.84 0.86 0.90 1.00 1.05 1.14 1.19 1.19 1.23 1.30 1.35
1.21 1.24 1.31 1.27 1.20 1.22 1.28 1.28 1.26 1.19 1.14 1.07 1.03 1.02 1.02 1.01 1.01 1.01 1.01 1.00 0.98 0.96 0.94 0.91 0.88 0.86 0.85 0.82 0.79 0.80 0.77 0.69 0.68 0.74 0.77 0.82 0.90 0.99 1.02 1.02 1.01 1.10 1.19